Total_Precipitation_Accumulation
3.30 3.51 4.30 4.10 3.73 3.48 3.30 3.18 3.01 2.98 3.14 3.27 3.22 3.24 3.23 3.30 3.46 3.63 3.81 3.89 4.16 4.51 4.80 4.91 4.59 4.59 4.52 4.41 4.03 3.46 3.04 2.96 2.93 2.78 2.64 2.66 2.58 2.69 3.08 3.28 3.02 2.39 2.37
2.78 3.13 3.79 3.73 3.54 3.31 3.13 3.08 2.97 2.95 3.13 3.26 3.29 3.25 3.29 3.29 3.37 3.43 3.59 3.98 4.36 4.62 4.80 4.52 4.31 4.39 4.29 4.20 3.72 3.27 2.93 2.87 2.85 2.94 2.80 2.43 2.58 2.92 3.30 3.39 3.33 2.49 2.37
2.37 2.73 2.91 3.30 3.26 3.12 3.00 3.07 3.39 3.44 3.39 3.27 3.23 3.14 3.18 3.21 3.31 3.45 3.72 4.04 4.34 4.37 4.38 4.21 4.09 4.03 3.89 3.78 3.42 3.07 2.87 2.75 2.83 3.09 3.26 2.36 2.14 2.85 3.17 3.24 2.96 2.32 2.11
2.16 2.41 2.55 3.02 2.96 2.73 2.88 3.12 3.42 3.57 3.52 3.40 3.27 3.11 3.08 3.25 3.44 3.58 3.61 3.78 4.02 3.96 3.72 3.77 3.89 3.84 3.72 3.46 3.16 2.98 2.88 2.85 3.08 3.44 3.46 2.52 1.96 2.41 2.87 2.84 2.54 2.17 1.96
2.09 2.34 2.75 2.90 2.73 2.61 2.75 3.03 3.35 3.51 3.42 3.37 3.27 3.14 3.22 3.25 3.31 3.36 3.33 3.56 3.72 3.73 3.58 3.45 3.61 3.76 3.72 3.48 3.14 3.01 2.89 2.96 3.33 3.31 2.85 2.75 2.65 2.60 2.67 2.63 2.43 2.19 2.03
1.73 2.10 2.57 2.82 2.72 2.67 2.97 3.16 3.29 3.32 3.22 3.19 3.17 3.22 3.21 3.14 3.17 3.15 3.12 3.23 3.49 3.51 3.25 3.18 3.50 3.81 3.85 3.53 3.12 3.16 3.18 3.28 3.19 2.60 2.38 2.42 2.54 2.66 2.61 2.70 2.64 2.41 2.22
1.64 1.97 2.42 2.81 2.68 2.70 2.87 3.10 3.36 3.43 3.31 3.12 3.06 2.99 3.02 3.05 3.09 3.03 2.86 2.93 3.15 3.14 2.96 3.01 3.45 3.70 3.69 3.43 3.22 3.41 3.37 3.37 2.88 2.42 2.25 2.47 2.34 2.28 2.46 2.73 2.93 2.71 2.36
1.44 1.72 2.08 2.58 2.59 2.55 2.62 2.82 3.05 3.15 3.10 2.95 2.76 2.72 2.82 2.87 2.88 2.83 2.71 2.84 2.81 2.71 2.79 2.99 3.45 3.27 3.26 3.41 3.45 3.65 3.54 3.01 2.33 2.28 2.14 2.21 1.85 1.98 2.43 2.70 2.82 2.65 2.36
1.35 1.48 1.85 2.25 2.44 2.49 2.70 2.76 2.68 2.65 2.58 2.49 2.38 2.51 2.73 2.81 2.69 2.58 2.56 2.65 2.58 2.61 2.80 3.10 3.34 3.01 3.06 3.40 3.50 3.59 3.45 2.92 2.28 2.25 2.05 2.28 2.07 2.27 2.67 2.75 2.64 2.59 2.34
1.62 1.64 1.88 2.07 2.19 2.30 2.45 2.59 2.54 2.51 2.33 2.25 2.26 2.39 2.48 2.54 2.49 2.36 2.30 2.51 2.50 2.61 2.68 2.98 3.07 2.84 3.12 3.37 3.48 3.45 3.31 2.70 2.07 2.11 2.20 2.06 2.19 2.59 2.98 2.98 2.87 2.77 2.56
1.95 1.96 1.95 1.93 1.94 2.15 2.23 2.27 2.53 2.56 2.40 2.30 2.40 2.45 2.46 2.45 2.22 2.17 2.23 2.68 2.71 2.81 2.88 3.08 3.13 3.31 3.42 3.29 3.51 3.46 3.02 2.51 2.41 2.34 2.38 2.13 2.37 2.90 3.21 3.16 3.09 3.12 2.94
2.07 2.12 2.19 2.06 1.88 2.06 2.08 2.35 2.56 2.25 2.33 2.41 2.53 2.37 2.38 2.52 2.49 2.18 2.59 2.95 3.17 3.41 3.50 3.64 3.78 3.65 3.33 3.32 3.86 3.77 2.86 2.69 2.51 2.46 2.74 2.56 2.72 3.28 3.59 3.41 3.27 3.33 3.24
2.09 1.90 2.13 2.40 2.35 2.34 2.42 2.29 2.32 2.39 2.56 2.53 2.31 2.26 2.45 2.17 2.02 2.24 2.60 2.92 3.22 3.56 3.83 4.07 4.14 3.76 3.72 3.99 4.11 3.68 2.91 2.60 2.56 2.33 2.73 2.76 2.93 3.56 4.07 3.87 3.66 3.61 3.57
2.30 1.99 2.00 2.26 2.56 2.54 2.40 2.31 2.23 2.21 2.36 2.34 2.44 2.26 2.42 2.41 2.41 2.63 3.12 3.24 3.49 3.62 4.15 4.25 4.60 4.32 4.01 3.73 3.77 3.59 3.16 3.02 2.81 2.81 3.10 2.66 2.82 3.48 4.26 4.33 4.14 3.95 3.77
2.62 2.35 2.21 2.18 2.50 2.61 2.64 2.48 2.17 2.27 2.25 2.42 2.60 2.48 2.52 2.64 2.96 3.27 3.37 3.75 3.70 3.75 4.15 4.59 4.58 4.83 4.77 4.58 4.26 3.91 3.80 3.50 3.17 3.25 3.26 3.01 2.94 3.26 4.01 4.58 4.52 4.32 4.05
2.97 2.84 2.52 2.37 2.50 2.63 2.71 2.70 2.64 2.54 2.72 2.73 2.81 2.82 2.91 3.15 3.51 3.87 3.94 4.09 3.91 3.93 4.41 4.74 4.83 5.44 5.26 4.99 4.45 4.14 3.93 3.73 3.40 3.24 3.44 3.54 3.08 2.98 3.52 4.45 4.90 4.83 4.65
3.16 3.24 3.08 2.93 2.98 3.11 3.41 3.35 3.06 3.11 3.10 3.19 3.33 3.38 3.33 3.48 4.00 4.31 4.26 4.16 4.18 4.21 4.64 4.94 5.07 5.25 4.94 4.71 4.60 4.41 4.15 3.88 3.42 3.39 3.42 3.65 3.42 3.17 3.43 3.93 4.55 4.82 4.97
3.18 3.59 3.65 3.38 3.62 3.86 4.16 4.18 3.82 3.78 3.72 3.69 3.59 3.63 3.56 3.70 4.01 4.60 4.36 4.18 4.62 4.48 4.78 5.42 5.47 5.39 5.35 5.04 4.84 4.40 4.12 3.94 3.37 3.30 3.31 3.53 3.90 3.34 3.42 3.85 4.19 4.40 5.01
3.22 3.78 4.05 4.18 4.41 4.51 4.67 4.72 4.52 4.36 4.19 3.84 3.80 3.80 3.66 3.74 3.93 4.41 4.30 4.42 4.45 4.85 5.08 4.70 5.47 5.60 5.41 5.08 4.35 4.13 3.75 3.58 3.49 3.16 3.29 3.33 3.76 3.60 3.60 3.69 3.97 4.19 4.95
3.49 3.97 4.57 4.87 5.07 4.89 4.90 4.99 4.73 4.33 4.15 3.93 3.89 3.85 3.65 3.76 3.82 4.37 4.25 4.25 4.25 4.79 5.02 4.99 5.51 5.48 5.09 4.95 3.90 3.76 3.61 3.18 3.11 3.20 3.00 3.21 3.50 3.19 3.46 3.79 4.21 3.75 4.11
3.98 4.29 4.66 5.18 5.52 5.45 5.54 5.48 5.32 4.97 4.70 4.26 3.78 3.46 3.41 3.42 3.66 4.27 3.94 4.43 4.33 4.52 4.63 4.62 5.03 5.15 4.76 4.76 4.67 4.20 3.38 2.87 2.79 2.80 2.87 3.09 3.09 3.22 3.93 4.55 4.68 4.48 4.21
3.78 4.30 4.74 4.83 4.82 4.72 5.02 5.43 5.61 5.56 4.99 4.28 3.87 3.76 3.40 3.30 3.50 3.78 4.19 4.12 4.19 4.40 4.42 4.45 4.80 4.74 4.29 4.49 4.84 4.86 3.99 3.60 3.00 2.31 2.66 2.80 2.94 3.39 3.72 3.97 4.37 4.74 4.86
3.22 3.77 3.98 3.96 3.91 3.81 3.99 4.42 4.73 5.02 4.82 4.44 4.09 3.82 3.38 3.24 3.28 3.49 3.83 3.93 4.04 3.88 4.13 4.36 4.34 4.36 4.33 4.31 4.44 4.95 4.52 4.02 3.32 2.62 2.44 2.55 2.97 3.36 3.43 3.71 3.74 4.03 4.36
2.46 2.72 2.86 3.08 3.26 3.32 3.37 3.59 3.89 4.19 4.24 4.24 4.15 3.79 3.39 3.07 3.06 3.25 3.42 3.48 3.57 3.53 3.86 3.56 3.70 4.08 4.37 4.26 4.18 4.06 4.10 4.24 4.07 3.30 2.73 2.57 2.86 3.04 3.05 3.04 3.36 3.81 3.92
2.23 2.44 2.57 2.90 3.11 3.22 3.21 3.28 3.52 3.87 3.92 3.76 3.63 3.72 3.48 3.18 2.92 2.86 3.09 3.23 3.25 3.19 3.32 3.38 3.78 3.74 3.93 4.00 4.04 4.00 4.09 4.13 3.90 3.68 3.24 3.04 2.94 2.63 2.63 2.84 3.14 3.49 3.69
2.03 2.21 2.44 2.71 2.75 2.85 2.91 2.91 2.98 3.21 3.41 3.31 3.24 3.24 3.11 2.98 2.88 2.78 2.84 3.05 2.98 2.97 3.12 3.28 3.43 3.45 3.59 3.71 3.71 3.80 4.14 4.03 3.92 3.95 3.44 3.20 3.05 2.68 2.63 2.73 2.89 3.23 3.45